This demonstration page uses our WeatherBlox Daily Observations layout. Learn more.

38.89511, -77.03637

Hourly Observations for April 12, 2017

Temp ( °F °C ) Dew Point ( °F °C ) Humidity (%) Winds ( mph kmh ) Pressure ( in mb ) Visibility ( mi km ) Precip ( " mm )
12:52 am 00:52 Partly Cloudy 68 20 54 12.2 61 61 SW 6 9 30.09 1019 10 16.09344 0 0
1:52 am 01:52 Partly Cloudy 71 21.7 53 11.7 53 53 W 8 13 30.09 1019 10 16.09344 0 0
2:52 am 02:52 Mostly Cloudy 69 20.6 54 12.2 59 59 WNW 7 11 30.09 1019 10 16.09344 0 0
3:52 am 03:52 Mostly Cloudy 68 20 55 12.8 63 63 NW 8 13 30.09 1019 10 16.09344 0 0
4:52 am 04:52 Mostly Cloudy 66 18.9 55 12.8 68 68 N 3 6 30.12 1020 10 16.09344 0 0
5:52 am 05:52 Mostly Cloudy 65 18.3 55 12.8 70 70 NE 3 6 30.12 1020 10 16.09344 0 0
6:52 am 06:52 Mostly Cloudy 66 18.9 54 12.2 65 65 N 3 6 30.12 1020 10 16.09344 0 0
7:52 am 07:52 Cloudy 67 19.4 55 12.8 66 66 N 6 9 30.18 1022 10 16.09344 0 0
8:52 am 08:52 Cloudy 69 20.6 55 12.8 61 61 N 5 7 30.18 1022 10 16.09344 0 0
9:52 am 09:52 Cloudy 70 21.1 55 12.8 59 59 NNW 14 22 30.21 1023 10 16.09344 0 0
10:52 am 10:52 Cloudy with Light Rain 68 20 55 12.8 63 63 NW 16 26 30.24 1024 10 16.09344 0.001 0.001
11:52 am 11:52 Cloudy 70 21.1 56 13.3 61 61 N 10 17 30.21 1023 10 16.09344 0.001 0.001
12:52 pm 12:52 Cloudy 72 22.2 56 13.3 57 57 N 3 6 30.21 1023 10 16.09344 0 0
1:52 pm 13:52 Cloudy 76 24.4 56 13.3 50 50 NNW 9 15 30.21 1023 10 16.09344 0 0
2:52 pm 14:52 Mostly Cloudy 76 24.4 55 12.8 48 48 NW 12 19 30.18 1022 10 16.09344 0 0
3:52 pm 15:52 Mostly Cloudy 78 25.6 49 9.4 36 36 NW 13 20 30.18 1022 10 16.09344 0 0
4:52 pm 16:52 Mostly Cloudy 78 25.6 48 8.9 35 35 NNW 10 17 30.18 1022 10 16.09344 0 0
5:52 pm 17:52 Partly Cloudy 78 25.6 47 8.3 33 33 WNW 5 7 30.18 1022 10 16.09344 0 0
6:52 pm 18:52 Partly Cloudy 76 24.4 41 5 29 29 N 14 22 30.18 1022 10 16.09344 0 0
7:52 pm 19:52 Mostly Clear 73 22.8 40 4.4 30 30 NW 7 11 30.21 1023 10 16.09344 0 0
8:52 pm 20:52 Mostly Clear 71 21.7 38 3.3 30 30 NNW 10 17 30.24 1024 10 16.09344 0 0
9:52 pm 21:52 Clear 69 20.6 32 0 25 25 N 13 20 30.27 1025 10 16.09344 0 0
10:52 pm 22:52 Clear 67 19.4 33 0.6 28 28 N 7 11 30.27 1025 10 16.09344 0 0
11:52 pm 23:52 Clear 62 16.7 38 3.3 41 41 N 8 13 30.3 1026 10 16.09344 0 0

Powered by AerisWeather